sat.trackr.live / text

‹ back to catalog

STARLINK-35872

NORAD 66580 · 2025-268Z

PAYLOAD ACTIVE UNKNOWN

§ Identity

Operator
Country
US
Launch date
2025-11-21
Launch site
AFETR
Launch vehicle
Mass (kg)
RCS (m²)

Purposes: comms

External: N2YO · Heavens-Above · Gunter

§ Orbital elements

Epoch: 2026-05-24T17:58:51.521952Z

Period
94.27 min
Inclination
43.0012°
Eccentricity
0.0001325
Mean motion
15.27567662 rev/d
Perigee alt
482.2 km
Apogee alt
484.0 km
Semi-major
6,861.2 km
B*
2.6988e-4
RAAN
277.3825°
Arg perigee
283.2185°
Mean anomaly
76.8519°
Rev number
2,959

§ Raw data

STARLINK-358721 66580U 25268Z   26144.74920743  .00007169  00000+0  26988-3 0  99992 66580  43.0012 277.3825 0001325 283.2185  76.8519 15.27567662 29599

JSON: /api/v1/satellites/66580 · /tle

For live sub-satellite position, see the globe view (requires WebGL).

§ Visibility from observer

Set your observer location to see the next 7 days of passes ≥ 10°. The values pass through the URL so the page stays shareable.

No JS? Fill the form by hand. The geolocation button needs JavaScript.